User: anonymous   Login
Location: Nantong Television Tower
(32.0188°N, 120.8512°E)
Time: 02:51:35
(UTC+08:00)
Language:

ATLAS 3B CENTAUR R/B - Orbit

View from above orbital plane
View from above orbital plane
View from above satellite
View from above satellite

Ground track
Ground track

The orbit data is extracted from the following two-line orbital elements,

1 28118U 03057B   16240.79492896  .00056101  00000-0  85449-3 0  9998
2 28118  28.1197 162.3722 3239615 108.8873 288.6302  8.99937222262715
Epoch (UTC): 27 August 2016 19:04:41
Eccentricity: 0.3239615
inclination: 28.1197°
perigee height: 222 km
apogee height: 6548 km
right ascension of ascending node: 162.3722°
argument of perigee: 108.8873°
revolutions per day: 8.99937222
mean anomaly at epoch: 288.6302°
orbit number at epoch: 26271

The dashed part of the orbit path shows where the satellite is in the earth's shadow,  

DLR